Appleton, WI

12:20 PM CDT on July 26, 2017 (GMT -0500)
Outagamie County Regional

Weather History for KATW - February, 2013

Change the Weather History Date:

Thursday, February 21, 2013

  Actual Average Record
Temperature  
Mean Temperature 16 °F -  
Max Temperature 24 °F 32 °F 57 °F (2017)
Min Temperature 8 °F 16 °F -15 °F (1963)
Degree Days  
Heating Degree Days 49    
Moisture  
Dew Point 12 °F    
Average Humidity 83    
Maximum Humidity 100    
Minimum Humidity 73    
Precipitation  
Precipitation 0.00 in - - ()
Sea Level Pressure  
Sea Level Pressure 30.31 in    
Wind  
Wind Speed 9 mph (NNE)    
Max Wind Speed 18 mph    
Max Gust Speed 26 mph    
Visibility 9 miles    
Events Snow    
Averages and records for this station are not official NWS values.
T = Trace of Precipitation, MM = Missing Value Source: NWS Daily Summary

Daily Weather History Graph

Daily Weather History Graph

Search for Another Location

Airport or City:

Trip Planner

Search our weather history database for the weather conditions in past years. The results will help you decide how hot, cold, wet, or windy it might be!

Date:

Astronomy

Feb. 21, 2013 Rise Set
Actual Time 6:44 AM CST 5:31 PM CST
Civil Twilight 6:14 AM CST 6:01 PM CST
Nautical Twilight 5:40 AM CST 6:35 PM CST
Astronomical Twilight 5:07 AM CST 7:08 PM CST
Moon 1:40 PM CST (2/21) 3:54 AM CST (2/21)
Length of Visible Light 11h 46m
Length of Day
10h 47m
Waxing Gibbous, 84% of the Moon is Illuminated
Feb 21
Waxing Gibbous
Feb 25
Full
Mar 4
Last Quarter
Mar 11
New
Mar 19
First Quarter

Hourly Weather History & Observations

Time (CST) Temp. Windchill Dew Point Humidity Pressure Visibility Wind Dir Wind Speed Gust Speed Precip Events Conditions
12:15 AM 10.4 °F 0.8 °F 5.0 °F 79% 30.38 in 10.0 mi North 5.8 mph - N/A   Clear
12:35 AM 10.4 °F -0.4 °F 3.2 °F 73% 30.38 in 10.0 mi NNE 6.9 mph - N/A   Clear
12:55 AM 10.4 °F 2.2 °F 3.2 °F 73% 30.39 in 10.0 mi NNE 4.6 mph - N/A   Clear
1:15 AM 8.6 °F -1.3 °F 3.2 °F 79% 30.38 in 10.0 mi North 5.8 mph - N/A   Clear
1:35 AM 8.6 °F 0.1 °F 3.2 °F 79% 30.39 in 10.0 mi NW 4.6 mph - N/A   Clear
1:55 AM 8.6 °F -2.6 °F 1.4 °F 73% 30.39 in 10.0 mi WNW 6.9 mph - N/A   Clear
2:15 AM 8.6 °F -2.6 °F 3.2 °F 79% 30.39 in 10.0 mi NNW 6.9 mph - N/A   Clear
2:35 AM 8.6 °F -3.7 °F 3.2 °F 79% 30.38 in 10.0 mi NNW 8.1 mph - N/A   Clear
2:55 AM 8.6 °F -3.7 °F 1.4 °F 73% 30.38 in 10.0 mi NNW 8.1 mph - N/A   Clear
3:15 AM 8.6 °F -5.5 °F 3.2 °F 79% 30.37 in 10.0 mi North 10.4 mph - N/A   Clear
3:35 AM 8.6 °F -4.7 °F 3.2 °F 79% 30.38 in 10.0 mi North 9.2 mph - N/A   Clear
3:55 AM 8.6 °F -5.5 °F 3.2 °F 79% 30.38 in 10.0 mi North 10.4 mph - N/A   Clear
4:15 AM 8.6 °F -5.5 °F 3.2 °F 79% 30.39 in 10.0 mi North 10.4 mph - N/A   Clear
5:15 AM 8.6 °F -4.7 °F 5.0 °F 85% 30.41 in 10.0 mi North 9.2 mph - N/A   Overcast
5:50 AM 10.4 °F -2.4 °F 5.0 °F 79% 30.41 in 10.0 mi North 9.2 mph - N/A   Overcast
6:45 AM 10.4 °F -7.2 °F 6.8 °F 85% 30.35 in 10.0 mi NNE 17.3 mph - N/A   Overcast
7:45 AM 12.2 °F -2.5 °F 8.6 °F 85% 30.35 in 10.0 mi NNE 12.7 mph - N/A   Overcast
8:45 AM 14.0 °F 2.0 °F 10.4 °F 86% 30.42 in 7.0 mi North 9.2 mph - N/A Snow Light Snow
9:30 AM 15.8 °F 6.1 °F 10.4 °F 79% 30.41 in 5.0 mi NNE 6.9 mph - N/A Snow Light Snow
10:45 AM 17.6 °F 7.3 °F 12.2 °F 79% 30.39 in 3.0 mi NNE 8.1 mph - N/A Snow Light Snow
11:45 AM 19.4 °F 10.4 °F 14.0 °F 80% 30.40 in 7.0 mi NNE 6.9 mph - N/A   Overcast
12:45 PM 21.2 °F 9.5 °F 17.6 °F 86% 30.37 in 10.0 mi NE 11.5 mph - N/A   Overcast
1:45 PM 21.2 °F 9.5 °F 17.6 °F 86% 30.31 in 10.0 mi NE 11.5 mph - N/A   Overcast
2:45 PM 21.2 °F 7.3 °F 17.6 °F 86% 30.29 in 7.0 mi NE 16.1 mph 21.9 mph N/A   Overcast
3:45 PM 21.2 °F 7.3 °F 17.6 °F 86% 30.30 in 7.0 mi ENE 16.1 mph 21.9 mph N/A   Overcast
4:45 PM 21.2 °F 7.8 °F 17.6 °F 86% 30.29 in 10.0 mi ENE 15.0 mph 23.0 mph N/A   Overcast
5:45 PM 21.2 °F 6.8 °F 17.6 °F 86% 30.27 in 10.0 mi NE 17.3 mph 598.4 mph N/A   Overcast
6:45 PM 21.2 °F 8.3 °F 21.2 °F 100% 30.23 in 10.0 mi NE 13.8 mph 25.3 mph N/A   Overcast
7:45 PM 21.2 °F 6.4 °F 21.2 °F 100% 30.22 in 10.0 mi ENE 18.4 mph 26.5 mph N/A   Overcast
8:45 PM 23.0 °F 11.1 °F 21.2 °F 93% 30.19 in 10.0 mi ENE 12.7 mph 20.7 mph N/A   Overcast
9:45 PM 24.8 °F 12.9 °F 21.2 °F 86% 30.15 in 10.0 mi ENE 13.8 mph 20.7 mph N/A   Overcast
9:55 PM 24.8 °F 12.9 °F 21.2 °F 86% 30.16 in 10.0 mi ENE 13.8 mph 20.7 mph N/A   Overcast
10:15 PM 24.8 °F 12.9 °F 21.2 °F 86% 30.14 in 10.0 mi ENE 13.8 mph 21.9 mph N/A   Overcast
10:35 PM 24.8 °F 12.4 °F 21.2 °F 86% 30.14 in 10.0 mi ENE 15.0 mph 24.2 mph N/A   Overcast
10:45 PM 24.8 °F 13.4 °F 21.2 °F 86% 30.14 in 10.0 mi ENE 12.7 mph 24.2 mph N/A   Overcast
10:55 PM 24.8 °F 12.9 °F 21.2 °F 86% 30.14 in 10.0 mi ENE 13.8 mph 18.4 mph N/A   Overcast
11:15 PM 24.8 °F 12.9 °F 19.4 °F 80% 30.11 in 10.0 mi ENE 13.8 mph 21.9 mph N/A   Scattered Clouds
11:35 PM 24.8 °F 13.4 °F 19.4 °F 80% 30.11 in 10.0 mi ENE 12.7 mph 18.4 mph N/A   Clear